Location: Cuzcurrita-R�o Tir�n
(42.5415°N, 2.9642°W)
Time: 18:32:56
(UTC+00:00)

NOSS 8 (F) - Pass Details

Date: 27 February 2020
Orbit: 392 x 1783 km, 63.3° (Epoch: 28 March)

Event Time Altitude Azimuth Distance (km) Brightness Sun altitude
Rises 19:33:10 0° 214° (SW) 2,572 8.6 -18.2°
Reaches altitude 10° 19:35:27 10° 215° (SW) 1,576 7.5 -18.6°
Maximum altitude 19:38:48 89° 114° (ESE) 411 4.1 -19.2°
Enters shadow 19:39:01 76° 38° (NE) 421 4.0 -19.3°
